COSMOS 2150

Satellite information

Favourite Embed

Satellite Type and Status

PAYLOADIN ORBIT

Key statistics

Satellite COSMOS 2150 at a glance.

Uptime

12383

Days in orbit

Revolutions

≈ 14.3

Per day

Orbit

LEO

Low Earth Orbit

Inclination

74.0

Latest

Satellite identification and parameters

Extended collection of information and parameters for COSMOS 2150.

Object identification

Identified? True

Debris? False

Object name: COSMOS 2150

International designator: 1991-041A

Object number (NORAD): 21418

Object ID (CCSDS): 21418

Country: COMMONWEALTH OF INDEPENDENT STATES (CIS)

Current information (Y/N): Y

RCS size: LARGE

Orbital parameters

Period: 100.524 minutes

Inclination: 74.0342 deg

SMA: 7161.561 km

Apoapsis: 795.273 km

Periapsis: 771.579 km

RAAN: 136.1225 deg

Eccentricy: 0.0016542

Argument of periapsis: 19.6429 deg

Mean anomaly: 340.5356 deg

Mean motion: 14.32488759 rev/day

Mean motion (dot): 0.00000219 rev/day2

B* drag term: 0.000090253 1/REarth

Two-line elements (TLE)

Creation date: May 6, 2025, 3:54 a.m.

Reference frame: TEME

Reference center: EARTH

Epoch: May 5, 2025, 6:49 p.m. UTC

TLE line 0: 0 COSMOS 2150

TLE line 1: 1 21418U 91041A 25125.78463575 .00000219 00000-0 90253-4 0 9996

TLE line 2: 2 21418 74.0342 136.1225 0016542 19.6429 340.5356 14.32488759770648

Live tracking on map

Real-time ground track for satellite COSMOS 2150.

In-orbit conjunctions

A list of the most updated potential collisions computed for object COSMOS 2150.

Target Orbit TCA Probability of collision Miss distance Type
CZ-6A DEB LEO 2025-03-05 10:46:59 0.0002430407 909.0 (m) DEBRIS
DMSP 5D-2 F13 DEB SSO 2025-02-18 13:01:23 0.0001230035 595.0 (m) DEBRIS
FENGYUN 1C DEB SSO 2025-02-01 12:11:22 0.0002138876 459.0 (m) DEBRIS
CZ-6A DEB LEO 2024-12-27 11:08:15 0.003406132 243.0 (m) DEBRIS
DMSP 5D-2 F11 DEB SSO 2024-11-04 08:15:21 0.0001766432 435.0 (m) DEBRIS

Associated space launch

Military communications satellite

COSMOS 2150 was lifted into orbit during the mission ‘Kosmos-3M | Strela-2M 49’, on board a Kosmos-3M space rocket.

The launch took place on June 11, 1991, 5:41 a.m. from 133/3 (133L).

For more information about the launch, click the button.

Launch to space Kosmos-3M | Strela-2M 49
Kosmos-3M | Strela-2M 49

Agency: N/A

Status: Launch Successful

Launch date: June 11, 1991, 5:41 a.m. UTC

Rocket: Kosmos-3M

Launch pad: 133/3 (133L)

Location: Plesetsk Cosmodrome, Russian Federation

...

Latest news about this satellite

There are no fresh news available about this satellite. Check back as we update our databases every day.


Newsletter sign-up

Weekly statistics, charts and insights to help you stay on top of the space industry.